Regional Weather Roundup
Issued by NWS

Home | Current Version | Previous Version | Text Only | Print | Product List | Glossary On
Versions: 1 2 3 4 5 6 7 8 9 10 11 12 13 14 15 16 17 18 19 20 21 22 23 24 25 26 27 28 29 30 31 32 33 34 35 36 37 38 39 40 41 42 43 44 45 46 47 48 49 50
000
ASUS43 KBIS 310610
RWRND

NORTH DAKOTA REGIONAL WEATHER ROUNDUP
NATIONAL WEATHER SERVICE BISMARCK ND
100 AM CDT SAT JUL 31 2021

NOTE: "FAIR" INDICATES FEW OR NO CLOUDS BELOW 12,000 FEET WITH NO
SIGNIFICANT WEATHER AND/OR OBSTRUCTIONS TO VISIBILITY.


NDZ001>003-009>011-017-310700-
NORTHWEST NORTH DAKOTA

CITY           SKY/WX    TMP DP  RH WIND       PRES   REMARKS
WILLISTON      CLEAR     68  47  46 W6        30.20S
6HR MIN TEMP:  68; 6HR MAX TEMP:  90;

MINOT          CLEAR     69  52  54 NW12      30.13R
MINOT AFB      CLEAR     68  40  36 N8        30.12R
$$

NDZ018>021-031>035-040>046-310700-
SOUTHWEST NORTH DAKOTA

CITY           SKY/WX    TMP DP  RH WIND       PRES   REMARKS
BISMARCK       CLEAR     72  61  68 W6        30.12R SMOKE
6HR MIN TEMP:  72; 6HR MAX TEMP:  88;

DICKINSON      CLEAR     71  54  54 N9        30.17S
GARRISON         N/A     64  54  69 N8        30.14R
6HR MIN TEMP:  64; 6HR MAX TEMP:  89;

HETTINGER ARPT CLEAR     66  60  81 SW3       30.19S HAZE
$$

NDZ004>008-012>016-024-026-027-054-310700-
NORTHEAST NORTH DAKOTA

CITY           SKY/WX    TMP DP  RH WIND       PRES   REMARKS
GRAND FORKS    CLEAR     66  57  72 NW6       30.00R HAZE
GRND FRKS AFB  CLEAR     66  63  89 NW7       30.02R SMOKE
DEVILS LAKE    CLEAR     71  58  63 NE8       30.09R
$$

NDZ022-023-025-028>030-036>039-047>053-310700-
SOUTHEAST NORTH DAKOTA

CITY           SKY/WX    TMP DP  RH WIND       PRES   REMARKS
FARGO          PTCLDY    69  61  75 SW12      30.02S HAZE
6HR MIN TEMP:  68; 6HR MAX TEMP:  79;

JAMESTOWN      PTCLDY    73  60  63 W12       30.05S HAZE
$$




USA.gov is the U.S. government's official web portal to all federal, state and local government web resources and services.